This is the latest recevied weather packets stored in our database for station/object KM4NDN. If no packets are shown the sender has not sent any weather packets the latest 10 day(s).
| Time | Temp. | Humidity | Pressure | Rain* | Wind** | Luminosity | Snow |
|---|---|---|---|---|---|---|---|
| 1777557156 | 7.78° C | 78% | 1012.8 hPa | 0 mm | - | 121 W/m² | - |
| 1777556852 | 7.22° C | 79% | 1012.9 hPa | 0 mm | - | 150 W/m² | - |
| 1777556549 | 7.22° C | 79% | 1012.9 hPa | 0 mm | - | 131 W/m² | - |
| 1777556248 | 7.22° C | 81% | 1012.9 hPa | 0 mm | - | 103 W/m² | - |
| 1777555944 | 7.22° C | 81% | 1012.9 hPa | 0 mm | - | 126 W/m² | - |
| 1777555640 | 7.22° C | 81% | 1012.7 hPa | 0 mm | - | 99 W/m² | - |
| 1777555337 | 7.22° C | 81% | 1012.7 hPa | 0 mm | - | 81 W/m² | - |
| 1777555033 | 7.22° C | 85% | 1012.7 hPa | 0 mm | - | 124 W/m² | - |
| 1777554731 | 6.67° C | 85% | 1012.6 hPa | 0 mm | - | 100 W/m² | - |
| 1777554427 | 6.67° C | 86% | 1012.4 hPa | 0 mm | - | 110 W/m² | - |
| 1777554123 | 6.67° C | 85% | 1012.5 hPa | 0 mm | - | 60 W/m² | - |
| 1777553821 | 6.11° C | 85% | 1012.6 hPa | 0 mm | - | 43 W/m² | - |
| 1777553517 | 6.11° C | 85% | 1012.4 hPa | 0 mm | - | 23 W/m² | - |
| 1777553213 | 6.11° C | 84% | 1012.4 hPa | 1.27 mm | - | 22 W/m² | - |
| 1777552910 | 6.11° C | 83% | 1012.4 hPa | 1.27 mm | - | 28 W/m² | - |
| 1777552610 | 6.67° C | 81% | 1012.3 hPa | 0 mm | - | 40 W/m² | - |
| 1777552306 | 6.67° C | 80% | 1012.4 hPa | 0 mm | - | 55 W/m² | - |
| 1777552003 | 6.67° C | 79% | 1012.5 hPa | 0 mm | - | 32 W/m² | - |
| 1777551700 | 6.67° C | 78% | 1012.3 hPa | 0 mm | - | 38 W/m² | - |
| 1777551398 | 6.67° C | 78% | 1012.3 hPa | 0 mm | - | 45 W/m² | - |
| 1777551094 | 6.67° C | 79% | 1012.4 hPa | 0 mm | - | 68 W/m² | - |
| 1777550791 | 6.67° C | 78% | 1012.1 hPa | 0 mm | - | 39 W/m² | - |
| 1777550488 | 6.67° C | 79% | 1012.3 hPa | 0 mm | - | 51 W/m² | - |
| 1777550183 | 6.67° C | 79% | 1012.2 hPa | 0 mm | - | 38 W/m² | - |
| 1777549880 | 6.67° C | 80% | 1012.3 hPa | 0 mm | - | 27 W/m² | - |
* Rain latest hour (hover to see other rain measurements)
** Current wind speed in m/s (hover to see current wind gust speed)